星链-35762(STARLINK-35762)

导读

STARLINK-35762是美国太空探索技术公司Starlink星链星座的组网卫星,星链旨在打造覆盖全球的低轨卫星互联网星座,为全球用户提供高速互联网接入服务。该卫星于2025年12月17日发射入轨,进一步补充了星链星座的在轨卫星数量,提升星座服务的覆盖能力与稳定性,推进星链项目的全球组网进程。

Basic Information
目录编号:
67172
目录名称:
STARLINK-35762
国际标识:
2025-303K
轨道中心:
EARTH
卫星名称:
星链-35762
卫星全名:
星链-35762(STARLINK-35762)
卫星状态:
在轨 (已飞行261 天)
发射日期:
2025-12-17 UTC
国别 :
美国 (US)
星等 :
--
Orbit Information
数据来源 国际轨道数据
星历时间: 2026-09-04T03:34:31+0800
9小时前
查看轨道信息
半长轴: 6861.146km
偏心率: 0.0001991
轨道倾角: 43.002°
近地点辐角 290.131°
升交点赤经 25.065°
平近点角 69.932°
近地点: 481.642km
远地点: 484.376km
周期: 94.266分钟
每日圈数: 15.275935
Detailed Information
固有亮度:
5
最大亮度:
2.5
卫星平台:
Starlink V1.0
覆盖范围:
全球
运营商:
太空探索技术公司
运营商所在国:
美国
制造商(研发单位):
太空探索技术公司
制造商所在国:
美国
使用方式:
暂无
Satellite Introduction
Starlink 计划是 SpaceX 推出的全球卫星互联网项目,通过发射低轨道卫星,为全球尤其是偏远地区提供高速、低延迟的互联网服务。自 2019 年起,Starlink 已部署数千颗卫星,旨在缩小全球数字鸿沟,推动互联网普及。该项目还为军事、航空等行业提供通信支持,带来广泛经济效益。
2D Orbit Map
3D Orbit Map
Orbit Altitude Analysis Chart
Orbit Inclination Analysis Chart
Orbit Comprehensive Analysis Chart
View Comprehensive Chart
Conjunction Data List
Event ID Objects TCA Miss Dist (km) Collision Risk Probability Collision Risk Index (CRI) Action
CDM_260904-042804-117306-717222
DAMPE (41173)
2026-09-04T
04:28:57+0000
2.672 km
极远距离
1.475758E-6 低风险 0.38
CDM_260904-132006-187206-717221
OBJECT D (61872)
2026-09-04T
13:20:11+0000
2.789 km
极远距离
1.148357E-6 低风险 0.36